Time,TemperatureF,DewpointF,PressureIn,WindDirection,WindDirectionDegrees,WindSpeedMPH,WindSpeedGustMPH,Humidity,HourlyPrecipIn,Conditions,Clouds,dailyrainin,SoftwareType,DateUTC
2013-07-20 00:02:00,59.7,40.0,29.94,North,0,0.0,0.0,48,0.00,,OVC036,0.00,VWS V12.08,2013-07-20 07:02:00,
2013-07-20 00:07:00,59.4,40.7,29.94,North,0,0.0,0.0,50,0.00,,OVC036,0.00,VWS V12.08,2013-07-20 07:07:00,
2013-07-20 00:12:00,59.2,41.1,29.94,North,0,0.0,0.0,51,0.00,,OVC036,0.00,VWS V12.08,2013-07-20 07:12:00,
2013-07-20 00:17:00,59.0,40.9,29.94,North,0,0.0,0.0,51,0.00,,OVC036,0.00,VWS V12.08,2013-07-20 07:17:00,
2013-07-20 00:22:00,58.8,40.8,29.94,North,0,0.0,0.0,51,0.00,,OVC036,0.00,VWS V12.08,2013-07-20 07:22:00,
2013-07-20 00:27:00,58.8,40.8,29.94,North,0,0.0,0.0,51,0.00,,OVC036,0.00,VWS V12.08,2013-07-20 07:27:00,
2013-07-20 00:32:00,58.6,40.6,29.94,North,0,0.0,0.0,51,0.00,,OVC036,0.00,VWS V12.08,2013-07-20 07:32:00,
2013-07-20 00:37:00,58.5,40.4,29.94,North,0,0.0,0.0,51,0.00,,OVC036,0.00,VWS V12.08,2013-07-20 07:37:00,
2013-07-20 00:42:00,58.3,40.2,29.97,North,0,0.0,0.0,51,0.00,,OVC036,0.00,VWS V12.08,2013-07-20 07:42:00,
2013-07-20 00:47:00,57.9,39.9,29.97,North,0,0.0,0.0,51,0.00,,OVC036,0.00,VWS V12.08,2013-07-20 07:47:00,
2013-07-20 00:52:00,57.9,39.9,29.97,North,0,0.0,0.0,51,0.00,,OVC036,0.00,VWS V12.08,2013-07-20 07:52:00,
2013-07-20 00:57:00,57.7,39.8,29.97,North,0,0.0,0.0,51,0.00,,OVC036,0.00,VWS V12.08,2013-07-20 07:57:00,
2013-07-20 01:02:00,57.6,39.6,29.97,North,0,0.0,0.0,51,0.00,,OVC036,0.00,VWS V12.08,2013-07-20 08:02:00,
2013-07-20 01:07:00,57.4,39.4,29.97,North,0,0.0,0.0,51,0.00,,OVC036,0.00,VWS V12.08,2013-07-20 08:07:00,
2013-07-20 01:12:00,57.2,39.8,29.97,North,0,0.0,0.0,52,0.00,,OVC036,0.00,VWS V12.08,2013-07-20 08:12:00,
2013-07-20 01:17:00,57.2,39.8,29.97,North,0,0.0,0.0,52,0.00,,OVC036,0.00,VWS V12.08,2013-07-20 08:17:00,
2013-07-20 01:22:00,57.0,39.6,29.97,North,0,0.0,0.0,52,0.00,,OVC036,0.00,VWS V12.08,2013-07-20 08:22:00,
2013-07-20 01:27:00,56.8,39.9,29.97,North,0,0.0,0.0,53,0.00,,OVC036,0.00,VWS V12.08,2013-07-20 08:27:00,
2013-07-20 01:32:00,56.8,39.9,29.97,North,0,0.0,0.0,53,0.00,,OVC036,0.00,VWS V12.08,2013-07-20 08:32:00,
2013-07-20 01:37:00,56.8,39.9,29.97,North,0,0.0,0.0,53,0.00,,OVC036,0.00,VWS V12.08,2013-07-20 08:37:00,
2013-07-20 01:42:00,56.7,39.7,29.97,North,0,0.0,0.0,53,0.00,,OVC036,0.00,VWS V12.08,2013-07-20 08:42:00,
2013-07-20 01:47:00,56.7,40.2,29.97,North,0,0.0,0.0,54,0.00,,OVC036,0.00,VWS V12.08,2013-07-20 08:47:00,
2013-07-20 01:52:00,56.7,40.7,29.97,North,0,0.0,0.0,55,0.00,,OVC036,0.00,VWS V12.08,2013-07-20 08:52:00,
2013-07-20 01:57:00,56.7,41.2,29.94,North,0,0.0,0.0,56,0.00,,OVC036,0.00,VWS V12.08,2013-07-20 08:57:00,
2013-07-20 02:02:00,56.7,41.6,29.94,North,0,0.0,0.0,57,0.00,,OVC036,0.00,VWS V12.08,2013-07-20 09:02:00,
2013-07-20 02:07:00,56.8,42.2,29.94,North,0,0.0,0.0,58,0.00,,OVC036,0.00,VWS V12.08,2013-07-20 09:07:00,
2013-07-20 02:12:00,57.0,42.4,29.97,North,0,0.0,0.0,58,0.00,,OVC036,0.00,VWS V12.08,2013-07-20 09:12:00,
2013-07-20 02:17:00,57.2,42.6,29.97,North,0,0.0,0.0,58,0.00,,OVC036,0.00,VWS V12.08,2013-07-20 09:17:00,
2013-07-20 02:22:00,57.0,42.8,29.97,North,0,0.0,0.0,59,0.00,,OVC036,0.00,VWS V12.08,2013-07-20 09:22:00,
2013-07-20 02:27:00,57.0,43.7,29.94,North,0,0.0,0.0,61,0.00,,OVC036,0.00,VWS V12.08,2013-07-20 09:27:00,
2013-07-20 02:32:00,57.0,44.6,29.94,North,0,0.0,0.0,63,0.00,,OVC036,0.00,VWS V12.08,2013-07-20 09:32:00,
2013-07-20 02:37:00,57.0,45.0,29.94,North,0,0.0,0.0,64,0.00,,OVC036,0.00,VWS V12.08,2013-07-20 09:37:00,
2013-07-20 02:42:00,57.2,44.7,29.97,North,0,0.0,0.0,63,0.00,,OVC036,0.00,VWS V12.08,2013-07-20 09:42:00,
2013-07-20 02:47:00,57.2,44.3,29.97,North,0,0.0,0.0,62,0.00,,OVC036,0.00,VWS V12.08,2013-07-20 09:47:00,
2013-07-20 02:52:00,57.0,45.0,29.97,North,0,0.0,0.0,64,0.00,,OVC036,0.00,VWS V12.08,2013-07-20 09:52:00,
2013-07-20 02:57:00,57.2,45.2,29.97,North,0,0.0,0.0,64,0.00,,OVC036,0.00,VWS V12.08,2013-07-20 09:57:00,
2013-07-20 02:58:00,57.2,45.2,29.97,North,0,0.0,0.0,64,0.00,,OVC036,0.00,VWS V12.08,2013-07-20 09:58:00,
2013-07-20 03:03:00,56.8,46.0,29.97,North,0,0.0,0.0,67,0.00,,OVC036,0.00,VWS V12.08,2013-07-20 10:03:00,
2013-07-20 03:08:00,56.8,46.4,29.97,North,0,0.0,0.0,68,0.00,,OVC036,0.00,VWS V12.08,2013-07-20 10:08:00,
2013-07-20 03:13:00,56.8,46.4,29.97,North,0,0.0,0.0,68,0.00,,OVC036,0.00,VWS V12.08,2013-07-20 10:13:00,
2013-07-20 03:18:00,56.7,46.2,29.97,North,0,0.0,0.0,68,0.00,,OVC036,0.00,VWS V12.08,2013-07-20 10:18:00,
2013-07-20 03:23:00,56.5,46.8,29.97,North,0,0.0,0.0,70,0.00,,OVC036,0.00,VWS V12.08,2013-07-20 10:23:00,
2013-07-20 03:28:00,56.7,47.8,29.94,North,0,0.0,0.0,72,0.00,,OVC036,0.00,VWS V12.08,2013-07-20 10:28:00,
2013-07-20 03:33:00,56.8,47.9,29.94,North,0,0.0,0.0,72,0.00,,OVC036,0.00,VWS V12.08,2013-07-20 10:33:00,
2013-07-20 03:38:00,57.0,47.7,29.94,North,0,0.0,0.0,71,0.00,,OVC036,0.00,VWS V12.08,2013-07-20 10:38:00,
2013-07-20 03:43:00,57.2,47.9,29.94,North,0,0.0,0.0,71,0.00,,OVC036,0.00,VWS V12.08,2013-07-20 10:43:00,
2013-07-20 03:48:00,57.0,47.3,29.94,North,0,0.0,0.0,70,0.00,,OVC036,0.00,VWS V12.08,2013-07-20 10:48:00,
2013-07-20 03:53:00,56.8,46.4,29.94,North,0,0.0,0.0,68,0.00,,OVC036,0.00,VWS V12.08,2013-07-20 10:53:00,
2013-07-20 03:58:00,56.7,46.6,29.94,North,0,0.0,0.0,69,0.00,,OVC036,0.00,VWS V12.08,2013-07-20 10:58:00,
2013-07-20 04:03:00,56.8,47.5,29.94,North,0,0.0,0.0,71,0.00,,OVC036,0.00,VWS V12.08,2013-07-20 11:03:00,
2013-07-20 04:08:00,57.0,47.7,29.94,North,0,0.0,0.0,71,0.00,,OVC036,0.00,VWS V12.08,2013-07-20 11:08:00,
2013-07-20 04:13:00,57.2,47.5,29.94,North,0,0.0,0.0,70,0.00,,OVC036,0.00,VWS V12.08,2013-07-20 11:13:00,
2013-07-20 04:18:00,57.2,47.5,29.94,North,0,0.0,0.0,70,0.00,,OVC036,0.00,VWS V12.08,2013-07-20 11:18:00,
2013-07-20 04:23:00,57.2,47.1,29.94,North,0,0.0,0.0,69,0.00,,OVC036,0.00,VWS V12.08,2013-07-20 11:23:00,
2013-07-20 04:28:00,57.2,47.1,29.97,North,0,0.0,0.0,69,0.00,,OVC036,0.00,VWS V12.08,2013-07-20 11:28:00,
2013-07-20 04:33:00,57.4,47.3,29.97,North,0,0.0,0.0,69,0.00,,OVC036,0.00,VWS V12.08,2013-07-20 11:33:00,
2013-07-20 04:38:00,57.4,46.9,29.97,North,0,0.0,0.0,68,0.00,,OVC036,0.00,VWS V12.08,2013-07-20 11:38:00,
2013-07-20 04:43:00,57.6,47.1,29.97,North,0,0.0,0.0,68,0.00,,OVC036,0.00,VWS V12.08,2013-07-20 11:43:00,
2013-07-20 04:48:00,57.4,46.5,29.97,North,0,0.0,0.0,67,0.00,,OVC036,0.00,VWS V12.08,2013-07-20 11:48:00,
2013-07-20 04:53:00,57.2,46.4,29.97,North,0,0.0,0.0,67,0.00,,OVC036,0.00,VWS V12.08,2013-07-20 11:53:00,
2013-07-20 04:58:00,57.2,46.4,29.97,North,0,0.0,0.0,67,0.00,,OVC036,0.00,VWS V12.08,2013-07-20 11:58:00,
2013-07-20 05:03:00,57.4,46.5,29.97,North,0,0.0,0.0,67,0.00,,OVC036,0.00,VWS V12.08,2013-07-20 12:03:00,
2013-07-20 05:08:00,57.4,46.5,29.97,North,0,0.0,0.0,67,0.00,,OVC036,0.00,VWS V12.08,2013-07-20 12:08:00,
2013-07-20 05:13:00,56.8,47.9,29.97,North,0,0.0,0.0,72,0.00,,OVC036,0.00,VWS V12.08,2013-07-20 12:13:00,
2013-07-20 05:18:00,56.7,48.8,29.97,North,0,0.0,0.0,75,0.00,,OVC036,0.00,VWS V12.08,2013-07-20 12:18:00,
2013-07-20 05:23:00,56.7,49.9,29.97,North,0,0.0,0.0,78,0.00,,OVC036,0.00,VWS V12.08,2013-07-20 12:23:00,
2013-07-20 05:28:00,56.7,50.2,29.97,North,0,0.0,0.0,79,0.00,,OVC036,0.00,VWS V12.08,2013-07-20 12:28:00,
2013-07-20 05:33:00,56.7,50.2,29.97,North,0,0.0,0.0,79,0.00,,OVC036,0.00,VWS V12.08,2013-07-20 12:33:00,
2013-07-20 05:38:00,56.8,50.7,29.97,North,0,0.0,0.0,80,0.00,,OVC036,0.00,VWS V12.08,2013-07-20 12:38:00,
2013-07-20 05:43:00,56.8,50.4,29.97,North,0,0.0,0.0,79,0.00,,OVC036,0.00,VWS V12.08,2013-07-20 12:43:00,
2013-07-20 05:48:00,56.7,50.6,29.97,North,0,0.0,0.0,80,0.00,,OVC036,0.00,VWS V12.08,2013-07-20 12:48:00,
2013-07-20 05:53:00,56.8,51.4,29.97,North,0,0.0,0.0,82,0.00,,OVC036,0.00,VWS V12.08,2013-07-20 12:53:00,
2013-07-20 05:58:00,56.7,51.6,29.97,North,0,0.0,0.0,83,0.00,,OVC036,0.00,VWS V12.08,2013-07-20 12:58:00,
2013-07-20 06:03:00,56.8,52.4,29.97,North,0,0.0,0.0,85,0.00,,OVC036,0.00,VWS V12.08,2013-07-20 13:03:00,
2013-07-20 06:08:00,56.8,52.4,29.97,North,0,0.0,0.0,85,0.00,,OVC036,0.00,VWS V12.08,2013-07-20 13:08:00,
2013-07-20 06:13:00,56.8,53.0,29.97,North,0,0.0,0.0,87,0.00,,OVC036,0.00,VWS V12.08,2013-07-20 13:13:00,
2013-07-20 06:18:00,56.8,53.3,29.97,North,0,0.0,0.0,88,0.00,,OVC036,0.00,VWS V12.08,2013-07-20 13:18:00,
2013-07-20 06:23:00,57.2,53.7,29.97,North,0,0.0,0.0,88,0.00,,OVC036,0.00,VWS V12.08,2013-07-20 13:23:00,
2013-07-20 06:28:00,57.4,54.2,29.97,North,0,0.0,0.0,89,0.00,,OVC036,0.00,VWS V12.08,2013-07-20 13:28:00,
2013-07-20 06:33:00,57.6,54.3,29.97,North,0,0.0,0.0,89,0.00,,OVC036,0.00,VWS V12.08,2013-07-20 13:33:00,
2013-07-20 06:38:00,57.6,54.3,29.97,North,0,0.0,0.0,89,0.00,,OVC036,0.00,VWS V12.08,2013-07-20 13:38:00,
2013-07-20 06:43:00,57.7,54.5,29.97,North,0,0.0,0.0,89,0.00,,OVC036,0.00,VWS V12.08,2013-07-20 13:43:00,
2013-07-20 06:48:00,57.6,54.0,29.97,North,0,0.0,0.0,88,0.00,,OVC036,0.00,VWS V12.08,2013-07-20 13:48:00,
2013-07-20 06:53:00,57.6,53.7,29.97,North,0,0.0,0.0,87,0.00,,OVC036,0.00,VWS V12.08,2013-07-20 13:53:00,
2013-07-20 06:58:00,57.2,52.4,29.97,North,0,0.0,0.0,84,0.00,,OVC036,0.00,VWS V12.08,2013-07-20 13:58:00,
2013-07-20 07:03:00,57.2,52.1,29.97,North,0,0.0,0.0,83,0.00,,OVC036,0.00,VWS V12.08,2013-07-20 14:03:00,
2013-07-20 07:08:00,57.4,51.9,29.97,North,0,0.0,0.0,82,0.00,,OVC036,0.00,VWS V12.08,2013-07-20 14:08:00,
2013-07-20 07:13:00,57.6,51.8,29.97,North,0,0.0,0.0,81,0.00,,OVC036,0.00,VWS V12.08,2013-07-20 14:13:00,
2013-07-20 07:18:00,57.6,51.8,29.97,North,0,0.0,0.0,81,0.00,,OVC036,0.00,VWS V12.08,2013-07-20 14:18:00,
2013-07-20 07:23:00,57.4,51.6,29.97,North,0,0.0,0.0,81,0.00,,OVC036,0.00,VWS V12.08,2013-07-20 14:23:00,
2013-07-20 07:28:00,57.2,51.8,29.97,North,0,0.0,0.0,82,0.00,,OVC036,0.00,VWS V12.08,2013-07-20 14:28:00,
2013-07-20 07:33:00,57.2,51.4,29.97,North,0,0.0,0.0,81,0.00,,OVC036,0.00,VWS V12.08,2013-07-20 14:33:00,
2013-07-20 07:38:00,57.0,51.3,29.97,North,0,0.0,0.0,81,0.00,,OVC036,0.00,VWS V12.08,2013-07-20 14:38:00,
2013-07-20 07:43:00,57.2,51.8,29.97,North,0,0.0,0.0,82,0.00,,OVC036,0.00,VWS V12.08,2013-07-20 14:43:00,
2013-07-20 07:48:00,57.0,51.6,29.97,North,0,0.0,0.0,82,0.00,,OVC036,0.00,VWS V12.08,2013-07-20 14:48:00,
2013-07-20 07:53:00,57.2,51.8,29.97,North,0,0.0,0.0,82,0.00,,OVC036,0.00,VWS V12.08,2013-07-20 14:53:00,
2013-07-20 07:58:00,57.2,51.8,29.97,North,0,0.0,0.0,82,0.00,,OVC036,0.00,VWS V12.08,2013-07-20 14:58:00,
2013-07-20 08:03:00,57.4,51.6,29.97,North,0,0.0,0.0,81,0.00,,OVC036,0.00,VWS V12.08,2013-07-20 15:03:00,
2013-07-20 08:08:00,57.4,51.6,29.97,North,0,0.0,0.0,81,0.00,,OVC036,0.00,VWS V12.08,2013-07-20 15:08:00,
2013-07-20 08:13:00,57.2,51.1,29.97,North,0,0.0,0.0,80,0.00,,OVC036,0.00,VWS V12.08,2013-07-20 15:13:00,
2013-07-20 08:18:00,57.2,51.4,29.97,North,0,0.0,0.0,81,0.00,,OVC036,0.00,VWS V12.08,2013-07-20 15:18:00,
2013-07-20 08:23:00,57.2,51.8,29.97,North,0,0.0,0.0,82,0.00,,OVC036,0.00,VWS V12.08,2013-07-20 15:23:00,
2013-07-20 08:28:00,57.4,51.6,29.97,North,0,0.0,0.0,81,0.00,,OVC036,0.00,VWS V12.08,2013-07-20 15:28:00,
2013-07-20 08:33:00,57.4,50.9,29.97,North,0,0.0,0.0,79,0.00,,OVC036,0.00,VWS V12.08,2013-07-20 15:33:00,
2013-07-20 08:38:00,57.2,50.4,29.97,North,0,0.0,0.0,78,0.00,,OVC036,0.00,VWS V12.08,2013-07-20 15:38:00,
2013-07-20 08:43:00,57.4,50.6,29.97,North,0,0.0,0.0,78,0.00,,OVC036,0.00,VWS V12.08,2013-07-20 15:43:00,
2013-07-20 08:48:00,57.2,50.4,29.97,North,0,0.0,0.0,78,0.00,,OVC036,0.00,VWS V12.08,2013-07-20 15:48:00,
2013-07-20 08:53:00,57.4,50.9,29.97,North,0,0.0,0.0,79,0.00,,OVC036,0.00,VWS V12.08,2013-07-20 15:53:00,
2013-07-20 08:58:00,57.6,51.1,29.97,North,0,0.0,0.0,79,0.00,,OVC036,0.00,VWS V12.08,2013-07-20 15:58:00,
2013-07-20 09:03:00,57.6,50.4,29.97,North,0,0.0,0.0,77,0.00,,OVC036,0.00,VWS V12.08,2013-07-20 16:03:00,
2013-07-20 09:08:00,57.6,50.1,29.97,North,0,0.0,0.0,76,0.00,,OVC036,0.00,VWS V12.08,2013-07-20 16:08:00,
2013-07-20 09:13:00,57.7,49.5,29.97,North,0,0.0,0.0,74,0.00,,OVC036,0.00,VWS V12.08,2013-07-20 16:13:00,
2013-07-20 09:18:00,57.9,49.3,29.97,North,0,0.0,0.0,73,0.00,,OVC036,0.00,VWS V12.08,2013-07-20 16:18:00,
2013-07-20 09:23:00,57.9,49.3,29.97,North,0,0.0,0.0,73,0.00,,OVC036,0.00,VWS V12.08,2013-07-20 16:23:00,
2013-07-20 09:28:00,57.9,49.3,29.97,North,0,0.0,0.0,73,0.00,,OVC036,0.00,VWS V12.08,2013-07-20 16:28:00,
2013-07-20 09:33:00,58.3,48.9,29.97,North,0,0.0,0.0,71,0.00,,OVC036,0.00,VWS V12.08,2013-07-20 16:33:00,
2013-07-20 09:38:00,58.3,48.5,29.97,North,0,0.0,0.0,70,0.00,,OVC036,0.00,VWS V12.08,2013-07-20 16:38:00,
2013-07-20 09:43:00,58.5,48.3,29.97,North,0,0.0,0.0,69,0.00,,OVC036,0.00,VWS V12.08,2013-07-20 16:43:00,
2013-07-20 09:48:00,58.5,47.6,29.97,North,0,0.0,0.0,67,0.00,,OVC036,0.00,VWS V12.08,2013-07-20 16:48:00,
2013-07-20 09:53:00,58.5,47.6,29.97,North,0,0.0,0.0,67,0.00,,OVC036,0.00,VWS V12.08,2013-07-20 16:53:00,
2013-07-20 09:58:00,58.8,47.9,29.97,North,0,0.0,0.0,67,0.00,,OVC036,0.00,VWS V12.08,2013-07-20 16:58:00,
2013-07-20 10:03:00,58.8,46.7,29.97,North,0,0.0,0.0,64,0.00,,OVC036,0.00,VWS V12.08,2013-07-20 17:03:00,
2013-07-20 10:08:00,58.8,47.1,29.97,North,0,0.0,0.0,65,0.00,,OVC036,0.00,VWS V12.08,2013-07-20 17:08:00,
2013-07-20 10:13:00,58.8,46.7,29.97,North,0,0.0,0.0,64,0.00,,OVC036,0.00,VWS V12.08,2013-07-20 17:13:00,
2013-07-20 10:18:00,59.0,46.4,29.97,North,0,0.0,0.0,63,0.00,,OVC036,0.00,VWS V12.08,2013-07-20 17:18:00,
2013-07-20 10:23:00,59.2,45.8,29.97,North,0,0.0,0.0,61,0.00,,OVC036,0.00,VWS V12.08,2013-07-20 17:23:00,
2013-07-20 10:28:00,59.2,45.3,29.97,North,0,0.0,0.0,60,0.00,,OVC036,0.00,VWS V12.08,2013-07-20 17:28:00,
2013-07-20 10:33:00,59.2,45.8,29.97,North,0,0.0,0.0,61,0.00,,OVC036,0.00,VWS V12.08,2013-07-20 17:33:00,
2013-07-20 10:38:00,59.2,44.9,29.97,North,0,0.0,0.0,59,0.00,,OVC036,0.00,VWS V12.08,2013-07-20 17:38:00,
2013-07-20 10:43:00,58.6,46.5,29.97,North,0,0.0,0.0,64,0.00,,OVC036,0.00,VWS V12.08,2013-07-20 17:43:00,
2013-07-20 10:48:00,59.0,46.0,29.97,North,0,0.0,0.0,62,0.00,,OVC036,0.00,VWS V12.08,2013-07-20 17:48:00,
2013-07-20 10:53:00,59.2,45.8,29.97,North,0,0.0,0.0,61,0.00,,OVC036,0.00,VWS V12.08,2013-07-20 17:53:00,
2013-07-20 10:58:00,59.2,45.8,29.97,North,0,0.0,0.0,61,0.00,,OVC036,0.00,VWS V12.08,2013-07-20 17:58:00,
2013-07-20 11:03:00,59.7,45.4,29.97,North,0,0.0,0.0,59,0.00,,OVC036,0.00,VWS V12.08,2013-07-20 18:03:00,
2013-07-20 11:08:00,59.7,45.4,29.97,North,0,0.0,0.0,59,0.00,,OVC036,0.00,VWS V12.08,2013-07-20 18:08:00,
2013-07-20 11:13:00,60.1,44.3,29.97,North,0,0.0,0.0,56,0.00,,OVC036,0.00,VWS V12.08,2013-07-20 18:13:00,
2013-07-20 11:18:00,60.3,44.5,29.97,North,0,0.0,0.0,56,0.00,,OVC036,0.00,VWS V12.08,2013-07-20 18:18:00,
2013-07-20 11:23:00,60.4,43.7,29.97,North,0,0.0,0.0,54,0.00,,OVC036,0.00,VWS V12.08,2013-07-20 18:23:00,
2013-07-20 11:28:00,60.4,43.7,29.97,North,0,0.0,0.0,54,0.00,,OVC036,0.00,VWS V12.08,2013-07-20 18:28:00,
2013-07-20 11:33:00,60.6,43.4,29.97,North,0,0.0,0.0,53,0.00,,OVC036,0.00,VWS V12.08,2013-07-20 18:33:00,
2013-07-20 11:38:00,61.0,43.2,29.97,North,0,0.0,0.0,52,0.00,,OVC036,0.00,VWS V12.08,2013-07-20 18:38:00,
2013-07-20 11:43:00,61.3,42.6,29.97,North,0,0.0,0.0,50,0.00,,OVC036,0.00,VWS V12.08,2013-07-20 18:43:00,
2013-07-20 11:49:00,61.2,42.9,29.97,North,0,0.0,0.0,51,0.00,,OVC036,0.00,VWS V12.08,2013-07-20 18:49:00,
2013-07-20 11:54:00,61.0,42.7,29.97,North,0,0.0,0.0,51,0.00,,OVC036,0.00,VWS V12.08,2013-07-20 18:54:00,
2013-07-20 11:59:00,61.0,42.7,29.97,North,0,0.0,0.0,51,0.00,,OVC036,0.00,VWS V12.08,2013-07-20 18:59:00,
2013-07-20 12:04:00,61.3,43.1,29.97,North,0,0.0,0.0,51,0.00,,OVC036,0.00,VWS V12.08,2013-07-20 19:04:00,
2013-07-20 12:09:00,61.7,42.4,29.97,North,0,0.0,0.0,49,0.00,,OVC036,0.00,VWS V12.08,2013-07-20 19:09:00,
2013-07-20 12:14:00,61.0,42.7,29.97,North,0,0.0,0.0,51,0.00,,OVC036,0.00,VWS V12.08,2013-07-20 19:14:00,
2013-07-20 12:19:00,61.5,43.2,29.97,North,0,0.0,0.0,51,0.00,,OVC036,0.00,VWS V12.08,2013-07-20 19:19:00,
2013-07-20 12:24:00,61.7,42.9,29.97,North,0,0.0,0.0,50,0.00,,OVC036,0.00,VWS V12.08,2013-07-20 19:24:00,
2013-07-20 12:30:00,62.1,43.2,29.97,North,0,0.0,0.0,50,0.00,,OVC036,0.00,VWS V12.08,2013-07-20 19:30:00,
2013-07-20 12:35:00,61.7,42.9,29.97,North,0,0.0,0.0,50,0.00,,OVC036,0.00,VWS V12.08,2013-07-20 19:35:00,
2013-07-20 12:40:00,61.9,42.5,29.94,North,0,0.0,0.0,49,0.00,,OVC036,0.00,VWS V12.08,2013-07-20 19:40:00,
2013-07-20 12:45:00,61.9,43.1,29.94,North,0,0.0,0.0,50,0.00,,OVC036,0.00,VWS V12.08,2013-07-20 19:45:00,
2013-07-20 12:50:00,62.6,42.1,29.94,North,0,0.0,0.0,47,0.00,,OVC036,0.00,VWS V12.08,2013-07-20 19:50:00,
2013-07-20 12:56:00,63.1,41.5,29.97,North,0,0.0,0.0,45,0.00,,OVC036,0.00,VWS V12.08,2013-07-20 19:56:00,
2013-07-20 13:01:00,63.5,41.8,29.97,North,0,0.0,0.0,45,0.00,,OVC036,0.00,VWS V12.08,2013-07-20 20:01:00,
2013-07-20 13:06:00,63.3,41.1,29.97,North,0,0.0,0.0,44,0.00,,OVC036,0.00,VWS V12.08,2013-07-20 20:06:00,
2013-07-20 13:11:00,64.9,41.9,29.94,North,0,0.0,0.0,43,0.00,,OVC036,0.00,VWS V12.08,2013-07-20 20:11:00,
2013-07-20 13:16:00,65.3,41.0,29.94,North,0,0.0,0.0,41,0.00,,OVC036,0.00,VWS V12.08,2013-07-20 20:16:00,
2013-07-20 13:21:00,65.5,40.5,29.94,North,0,0.0,0.0,40,0.00,,OVC036,0.00,VWS V12.08,2013-07-20 20:21:00,
2013-07-20 13:27:00,66.4,40.0,29.94,North,0,0.0,0.0,38,0.00,,OVC036,0.00,VWS V12.08,2013-07-20 20:27:00,
2013-07-20 13:32:00,66.0,40.4,29.94,North,0,0.0,0.0,39,0.00,,OVC036,0.00,VWS V12.08,2013-07-20 20:32:00,
2013-07-20 13:37:00,66.4,40.7,29.94,North,0,0.0,0.0,39,0.00,,OVC036,0.00,VWS V12.08,2013-07-20 20:37:00,
2013-07-20 13:42:00,67.1,40.7,29.94,North,0,0.0,0.0,38,0.00,,OVC036,0.00,VWS V12.08,2013-07-20 20:42:00,
2013-07-20 13:47:00,67.8,39.9,29.94,North,0,0.0,0.0,36,0.00,,OVC036,0.00,VWS V12.08,2013-07-20 20:47:00,
2013-07-20 13:52:00,68.0,39.3,29.94,North,0,0.0,0.0,35,0.00,,OVC036,0.00,VWS V12.08,2013-07-20 20:52:00,
2013-07-20 13:57:00,68.2,39.5,29.94,North,0,0.0,0.0,35,0.00,,OVC036,0.00,VWS V12.08,2013-07-20 20:57:00,
2013-07-20 14:02:00,68.9,39.4,29.94,North,0,0.0,0.0,34,0.00,,OVC036,0.00,VWS V12.08,2013-07-20 21:02:00,
2013-07-20 14:07:00,68.7,40.0,29.94,North,0,0.0,0.0,35,0.00,,OVC036,0.00,VWS V12.08,2013-07-20 21:07:00,
2013-07-20 14:12:00,68.0,39.3,29.94,North,0,0.0,0.0,35,0.00,,OVC036,0.00,VWS V12.08,2013-07-20 21:12:00,
2013-07-20 14:17:00,68.2,39.5,29.94,North,0,0.0,0.0,35,0.00,,OVC036,0.00,VWS V12.08,2013-07-20 21:17:00,
2013-07-20 14:22:00,68.7,40.0,29.94,North,0,0.0,0.0,35,0.00,,OVC036,0.00,VWS V12.08,2013-07-20 21:22:00,
2013-07-20 14:28:00,69.6,40.0,29.94,North,0,0.0,0.0,34,0.00,,OVC036,0.00,VWS V12.08,2013-07-20 21:28:00,
2013-07-20 14:33:00,69.3,39.7,29.94,North,0,0.0,0.0,34,0.00,,OVC036,0.00,VWS V12.08,2013-07-20 21:33:00,
2013-07-20 14:38:00,69.1,40.3,29.94,North,0,0.0,0.0,35,0.00,,OVC036,0.00,VWS V12.08,2013-07-20 21:38:00,
2013-07-20 14:43:00,69.4,39.9,29.91,North,0,0.0,0.0,34,0.00,,OVC036,0.00,VWS V12.08,2013-07-20 21:43:00,
2013-07-20 14:48:00,69.4,39.9,29.91,North,0,0.0,0.0,34,0.00,,OVC036,0.00,VWS V12.08,2013-07-20 21:48:00,
2013-07-20 14:54:00,69.4,39.1,29.91,North,0,0.0,0.0,33,0.00,,OVC036,0.00,VWS V12.08,2013-07-20 21:54:00,
2013-07-20 14:59:00,69.3,39.7,29.91,North,0,0.0,0.0,34,0.00,,OVC036,0.00,VWS V12.08,2013-07-20 21:59:00,
2013-07-20 15:04:00,70.2,39.7,29.91,North,0,0.0,0.0,33,0.00,,OVC036,0.00,VWS V12.08,2013-07-20 22:04:00,
2013-07-20 15:09:00,70.9,40.4,29.91,North,0,0.0,0.0,33,0.00,,OVC036,0.00,VWS V12.08,2013-07-20 22:09:00,
2013-07-20 15:14:00,70.3,39.9,29.91,North,0,0.0,0.0,33,0.00,,OVC036,0.00,VWS V12.08,2013-07-20 22:14:00,
2013-07-20 15:19:00,70.2,39.7,29.91,North,0,0.0,0.0,33,0.00,,OVC036,0.00,VWS V12.08,2013-07-20 22:19:00,
2013-07-20 15:24:00,70.2,39.7,29.91,North,0,0.0,0.0,33,0.00,,OVC036,0.00,VWS V12.08,2013-07-20 22:24:00,
2013-07-20 15:29:00,71.6,40.2,29.91,North,0,0.0,0.0,32,0.00,,OVC036,0.00,VWS V12.08,2013-07-20 22:29:00,
2013-07-20 15:34:00,70.3,39.9,29.91,North,0,0.0,0.0,33,0.00,,OVC036,0.00,VWS V12.08,2013-07-20 22:34:00,
2013-07-20 15:39:00,71.6,40.2,29.91,North,0,0.0,0.0,32,0.00,,OVC036,0.00,VWS V12.08,2013-07-20 22:39:00,
2013-07-20 15:45:00,71.8,40.4,29.91,North,0,0.0,0.0,32,0.00,,OVC036,0.00,VWS V12.08,2013-07-20 22:45:00,
2013-07-20 15:50:00,71.8,39.5,29.91,North,0,0.0,0.0,31,0.00,,OVC036,0.00,VWS V12.08,2013-07-20 22:50:00,
2013-07-20 15:55:00,71.4,40.0,29.91,North,0,0.0,0.0,32,0.00,,OVC036,0.00,VWS V12.08,2013-07-20 22:55:00,
2013-07-20 16:00:00,71.4,40.0,29.91,North,0,0.0,0.0,32,0.00,,OVC036,0.00,VWS V12.08,2013-07-20 23:00:00,
2013-07-20 16:05:00,72.0,39.7,29.91,North,0,0.0,0.0,31,0.00,,OVC036,0.00,VWS V12.08,2013-07-20 23:05:00,
2013-07-20 16:10:00,72.0,40.5,29.88,North,0,0.0,0.0,32,0.00,,OVC036,0.00,VWS V12.08,2013-07-20 23:10:00,
2013-07-20 16:15:00,72.0,39.7,29.88,North,0,0.0,0.0,31,0.00,,OVC036,0.00,VWS V12.08,2013-07-20 23:15:00,
2013-07-20 16:20:00,71.8,40.4,29.88,North,0,0.0,0.0,32,0.00,,OVC036,0.00,VWS V12.08,2013-07-20 23:20:00,
2013-07-20 16:26:00,72.0,40.5,29.88,North,0,0.0,0.0,32,0.00,,OVC036,0.00,VWS V12.08,2013-07-20 23:26:00,
2013-07-20 16:31:00,72.1,39.9,29.88,North,0,0.0,0.0,31,0.00,,OVC036,0.00,VWS V12.08,2013-07-20 23:31:00,
2013-07-20 16:36:00,71.8,39.5,29.88,North,0,0.0,0.0,31,0.00,,OVC036,0.00,VWS V12.08,2013-07-20 23:36:00,
2013-07-20 16:41:00,72.5,40.2,29.88,North,0,0.0,0.0,31,0.00,,OVC036,0.00,VWS V12.08,2013-07-20 23:41:00,
2013-07-20 16:46:00,72.7,40.3,29.88,North,0,0.0,0.0,31,0.00,,OVC036,0.00,VWS V12.08,2013-07-20 23:46:00,
2013-07-20 16:51:00,72.3,40.0,29.88,North,0,0.0,0.0,31,0.00,,OVC036,0.00,VWS V12.08,2013-07-20 23:51:00,
2013-07-20 16:56:00,72.5,40.2,29.88,North,0,0.0,0.0,31,0.00,,OVC036,0.00,VWS V12.08,2013-07-20 23:56:00,
2013-07-20 17:01:00,72.3,40.0,29.88,North,0,0.0,0.0,31,0.00,,OVC036,0.00,VWS V12.08,2013-07-21 00:01:00,
2013-07-20 17:07:00,72.3,40.0,29.88,North,0,0.0,0.0,31,0.00,,OVC036,0.00,VWS V12.08,2013-07-21 00:07:00,
2013-07-20 17:12:00,72.1,40.7,29.88,North,0,0.0,0.0,32,0.00,,OVC036,0.00,VWS V12.08,2013-07-21 00:12:00,
2013-07-20 17:17:00,73.2,41.6,29.88,North,0,0.0,0.0,32,0.00,,OVC036,0.00,VWS V12.08,2013-07-21 00:17:00,
2013-07-20 17:22:00,73.0,40.6,29.88,North,0,0.0,0.0,31,0.00,,OVC036,0.00,VWS V12.08,2013-07-21 00:22:00,
2013-07-20 17:27:00,72.1,40.7,29.88,North,0,0.0,0.0,32,0.00,,OVC036,0.00,VWS V12.08,2013-07-21 00:27:00,
2013-07-20 17:32:00,72.9,41.3,29.88,North,0,0.0,0.0,32,0.00,,OVC036,0.00,VWS V12.08,2013-07-21 00:32:00,
2013-07-20 17:37:00,73.4,41.0,29.88,North,0,0.0,0.0,31,0.00,,OVC036,0.00,VWS V12.08,2013-07-21 00:37:00,
2013-07-20 17:42:00,72.9,41.3,29.88,North,0,0.0,0.0,32,0.00,,OVC036,0.00,VWS V12.08,2013-07-21 00:42:00,
2013-07-20 17:48:00,73.2,41.6,29.88,North,0,0.0,0.0,32,0.00,,OVC036,0.00,VWS V12.08,2013-07-21 00:48:00,
2013-07-20 17:54:00,73.2,40.8,29.88,North,0,0.0,0.0,31,0.00,,OVC036,0.00,VWS V12.08,2013-07-21 00:54:00,
2013-07-20 17:59:00,73.2,40.8,29.85,North,0,0.0,0.0,31,0.00,,OVC036,0.00,VWS V12.08,2013-07-21 00:59:00,
2013-07-20 18:04:00,73.2,40.8,29.85,North,0,0.0,0.0,31,0.00,,OVC036,0.00,VWS V12.08,2013-07-21 01:04:00,
2013-07-20 18:09:00,73.2,41.6,29.85,North,0,0.0,0.0,32,0.00,,OVC036,0.00,VWS V12.08,2013-07-21 01:09:00,
2013-07-20 18:14:00,73.4,41.0,29.85,North,0,0.0,0.0,31,0.00,,OVC036,0.00,VWS V12.08,2013-07-21 01:14:00,
2013-07-20 18:19:00,73.4,41.0,29.85,North,0,0.0,0.0,31,0.00,,OVC036,0.00,VWS V12.08,2013-07-21 01:19:00,
2013-07-20 18:24:00,73.0,40.6,29.85,North,0,0.0,0.0,31,0.00,,OVC036,0.00,VWS V12.08,2013-07-21 01:24:00,
2013-07-20 18:29:00,72.5,41.0,29.85,North,0,0.0,0.0,32,0.00,,OVC036,0.00,VWS V12.08,2013-07-21 01:29:00,
2013-07-20 18:34:00,72.0,40.5,29.85,North,0,0.0,0.0,32,0.00,,OVC036,0.00,VWS V12.08,2013-07-21 01:34:00,
2013-07-20 18:39:00,72.7,41.2,29.85,North,0,0.0,0.0,32,0.00,,OVC036,0.00,VWS V12.08,2013-07-21 01:39:00,
2013-07-20 18:44:00,72.7,40.3,29.85,North,0,0.0,0.0,31,0.00,,OVC036,0.00,VWS V12.08,2013-07-21 01:44:00,
2013-07-20 18:49:00,72.7,40.3,29.85,North,0,0.0,0.0,31,0.00,,OVC036,0.00,VWS V12.08,2013-07-21 01:49:00,
2013-07-20 18:54:00,72.9,40.5,29.85,North,0,0.0,0.0,31,0.00,,OVC036,0.00,VWS V12.08,2013-07-21 01:54:00,
2013-07-20 18:59:00,72.9,40.5,29.85,North,0,0.0,0.0,31,0.00,,OVC036,0.00,VWS V12.08,2013-07-21 01:59:00,
2013-07-20 19:04:00,72.9,40.5,29.85,North,0,0.0,0.0,31,0.00,,OVC036,0.00,VWS V12.08,2013-07-21 02:04:00,
2013-07-20 19:09:00,72.7,40.3,29.85,North,0,0.0,0.0,31,0.00,,OVC036,0.00,VWS V12.08,2013-07-21 02:09:00,
2013-07-20 19:14:00,72.3,40.8,29.85,North,0,0.0,0.0,32,0.00,,OVC036,0.00,VWS V12.08,2013-07-21 02:14:00,
2013-07-20 19:19:00,72.0,40.5,29.85,North,0,0.0,0.0,32,0.00,,OVC036,0.00,VWS V12.08,2013-07-21 02:19:00,
2013-07-20 19:25:00,71.4,40.0,29.85,North,0,0.0,0.0,32,0.00,,OVC036,0.00,VWS V12.08,2013-07-21 02:25:00,
2013-07-20 19:30:00,71.2,39.9,29.85,North,0,0.0,0.0,32,0.00,,OVC036,0.00,VWS V12.08,2013-07-21 02:30:00,
2013-07-20 19:35:00,71.1,40.5,29.85,North,0,0.0,0.0,33,0.00,,OVC036,0.00,VWS V12.08,2013-07-21 02:35:00,
2013-07-20 19:41:00,70.9,40.4,29.85,North,0,0.0,0.0,33,0.00,,OVC036,0.00,VWS V12.08,2013-07-21 02:41:00,
2013-07-20 19:46:00,70.7,40.2,29.85,North,0,0.0,0.0,33,0.00,,OVC036,0.00,VWS V12.08,2013-07-21 02:46:00,
2013-07-20 19:51:00,70.5,40.1,29.85,North,0,0.0,0.0,33,0.00,,OVC036,0.00,VWS V12.08,2013-07-21 02:51:00,
2013-07-20 19:56:00,70.3,39.9,29.85,North,0,0.0,0.0,33,0.00,,OVC036,0.00,VWS V12.08,2013-07-21 02:56:00,
2013-07-20 20:01:00,69.8,39.4,29.85,North,0,0.0,0.0,33,0.00,,OVC036,0.00,VWS V12.08,2013-07-21 03:01:00,
2013-07-20 20:06:00,69.4,39.1,29.85,North,0,0.0,0.0,33,0.00,,OVC036,0.00,VWS V12.08,2013-07-21 03:06:00,
2013-07-20 20:11:00,69.3,39.0,29.85,North,0,0.0,0.0,33,0.00,,OVC036,0.00,VWS V12.08,2013-07-21 03:11:00,
2013-07-20 20:16:00,69.1,39.6,29.85,North,0,0.0,0.0,34,0.00,,OVC036,0.00,VWS V12.08,2013-07-21 03:16:00,
2013-07-20 20:21:00,68.7,39.2,29.85,North,0,0.0,0.0,34,0.00,,OVC036,0.00,VWS V12.08,2013-07-21 03:21:00,
2013-07-20 20:26:00,68.4,38.9,29.85,North,0,0.0,0.0,34,0.00,,OVC036,0.00,VWS V12.08,2013-07-21 03:26:00,
2013-07-20 20:31:00,68.2,39.5,29.85,North,0,0.0,0.0,35,0.00,,OVC036,0.00,VWS V12.08,2013-07-21 03:31:00,
2013-07-20 20:36:00,67.8,39.2,29.85,North,0,0.0,0.0,35,0.00,,OVC036,0.00,VWS V12.08,2013-07-21 03:36:00,
2013-07-20 20:42:00,67.6,39.0,29.85,North,0,0.0,0.0,35,0.00,,OVC036,0.00,VWS V12.08,2013-07-21 03:42:00,
2013-07-20 20:47:00,67.1,38.6,29.85,North,0,0.0,0.0,35,0.00,,OVC036,0.00,VWS V12.08,2013-07-21 03:47:00,
2013-07-20 20:53:00,66.6,38.1,29.85,North,0,0.0,0.0,35,0.00,,OVC036,0.00,VWS V12.08,2013-07-21 03:53:00,
2013-07-20 20:58:00,66.2,38.5,29.85,North,0,0.0,0.0,36,0.00,,OVC036,0.00,VWS V12.08,2013-07-21 03:58:00,
2013-07-20 21:01:00,65.8,38.2,29.85,North,0,0.0,0.0,36,0.00,,OVC036,0.00,VWS V12.08,2013-07-21 04:01:00,
2013-07-20 21:06:00,65.3,37.7,29.85,North,0,0.0,0.0,36,0.00,,OVC036,0.00,VWS V12.08,2013-07-21 04:06:00,
2013-07-20 21:11:00,64.8,37.9,29.85,North,0,0.0,0.0,37,0.00,,OVC036,0.00,VWS V12.08,2013-07-21 04:11:00,
2013-07-20 21:16:00,64.2,37.4,29.85,North,0,0.0,0.0,37,0.00,,OVC036,0.00,VWS V12.08,2013-07-21 04:16:00,
2013-07-20 21:21:00,63.9,37.8,29.85,North,0,0.0,0.0,38,0.00,,OVC036,0.00,VWS V12.08,2013-07-21 04:21:00,
2013-07-20 21:26:00,63.5,37.5,29.85,North,0,0.0,0.0,38,0.00,,OVC036,0.00,VWS V12.08,2013-07-21 04:26:00,
2013-07-20 21:31:00,63.3,38.0,29.85,North,0,0.0,0.0,39,0.00,,OVC036,0.00,VWS V12.08,2013-07-21 04:31:00,
2013-07-20 21:36:00,63.0,37.6,29.85,North,0,0.0,0.0,39,0.00,,OVC036,0.00,VWS V12.08,2013-07-21 04:36:00,
2013-07-20 21:41:00,62.6,38.0,29.85,North,0,0.0,0.0,40,0.00,,OVC036,0.00,VWS V12.08,2013-07-21 04:41:00,
2013-07-20 21:46:00,62.4,38.4,29.85,North,0,0.0,0.0,41,0.00,,OVC036,0.00,VWS V12.08,2013-07-21 04:46:00,
2013-07-20 21:51:00,62.2,38.9,29.85,North,0,0.0,0.0,42,0.00,,OVC036,0.00,VWS V12.08,2013-07-21 04:51:00,
2013-07-20 21:56:00,62.2,38.9,29.85,North,0,0.0,0.0,42,0.00,,OVC036,0.00,VWS V12.08,2013-07-21 04:56:00,
2013-07-20 22:01:00,61.9,38.6,29.85,North,0,0.0,0.0,42,0.00,,OVC036,0.00,VWS V12.08,2013-07-21 05:01:00,
2013-07-20 22:06:00,61.7,39.0,29.85,North,0,0.0,0.0,43,0.00,,OVC036,0.00,VWS V12.08,2013-07-21 05:06:00,
2013-07-20 22:11:00,61.5,38.8,29.85,North,0,0.0,0.0,43,0.00,,OVC036,0.00,VWS V12.08,2013-07-21 05:11:00,
2013-07-20 22:16:00,61.3,39.3,29.85,North,0,0.0,0.0,44,0.00,,OVC036,0.00,VWS V12.08,2013-07-21 05:16:00,
2013-07-20 22:21:00,61.2,39.1,29.85,North,0,0.0,0.0,44,0.00,,OVC036,0.00,VWS V12.08,2013-07-21 05:21:00,
2013-07-20 22:26:00,61.0,38.9,29.85,North,0,0.0,0.0,44,0.00,,OVC036,0.00,VWS V12.08,2013-07-21 05:26:00,
2013-07-20 22:31:00,61.0,39.5,29.85,North,0,0.0,0.0,45,0.00,,OVC036,0.00,VWS V12.08,2013-07-21 05:31:00,
2013-07-20 22:36:00,60.8,39.3,29.85,North,0,0.0,0.0,45,0.00,,OVC036,0.00,VWS V12.08,2013-07-21 05:36:00,
2013-07-20 22:41:00,60.6,39.2,29.85,North,0,0.0,0.0,45,0.00,,OVC036,0.00,VWS V12.08,2013-07-21 05:41:00,
2013-07-20 22:46:00,60.4,39.6,29.85,North,0,0.0,0.0,46,0.00,,OVC036,0.00,VWS V12.08,2013-07-21 05:46:00,
2013-07-20 22:51:00,60.4,39.6,29.85,North,0,0.0,0.0,46,0.00,,OVC036,0.00,VWS V12.08,2013-07-21 05:51:00,
2013-07-20 22:56:00,60.3,39.4,29.85,North,0,0.0,0.0,46,0.00,,OVC036,0.00,VWS V12.08,2013-07-21 05:56:00,
2013-07-20 23:01:00,60.1,39.2,29.85,North,0,0.0,0.0,46,0.00,,OVC036,0.00,VWS V12.08,2013-07-21 06:01:00,
2013-07-20 23:06:00,60.1,39.8,29.85,North,0,0.0,0.0,47,0.00,,OVC036,0.00,VWS V12.08,2013-07-21 06:06:00,
2013-07-20 23:07:00,60.1,39.8,29.85,North,0,0.0,0.0,47,0.00,,OVC036,0.00,VWS V12.08,2013-07-21 06:07:00,
2013-07-20 23:12:00,59.9,39.6,29.85,North,0,0.0,0.0,47,0.00,,OVC036,0.00,VWS V12.08,2013-07-21 06:12:00,
2013-07-20 23:17:00,59.7,39.5,29.85,North,0,0.0,0.0,47,0.00,,OVC036,0.00,VWS V12.08,2013-07-21 06:17:00,
2013-07-20 23:22:00,59.7,40.0,29.85,North,0,0.0,0.0,48,0.00,,OVC036,0.00,VWS V12.08,2013-07-21 06:22:00,
2013-07-20 23:27:00,59.4,39.7,29.85,North,0,0.0,0.0,48,0.00,,OVC036,0.00,VWS V12.08,2013-07-21 06:27:00,
2013-07-20 23:32:00,59.4,39.7,29.85,North,0,0.0,0.0,48,0.00,,OVC036,0.00,VWS V12.08,2013-07-21 06:32:00,
2013-07-20 23:37:00,59.2,39.5,29.85,North,0,0.0,0.0,48,0.00,,OVC036,0.00,VWS V12.08,2013-07-21 06:37:00,
2013-07-20 23:42:00,59.0,39.4,29.85,North,0,0.0,0.0,48,0.00,,OVC036,0.00,VWS V12.08,2013-07-21 06:42:00,
2013-07-20 23:47:00,58.8,39.2,29.85,North,0,0.0,0.0,48,0.00,,OVC036,0.00,VWS V12.08,2013-07-21 06:47:00,
2013-07-20 23:52:00,58.6,39.5,29.85,North,0,0.0,0.0,49,0.00,,OVC036,0.00,VWS V12.08,2013-07-21 06:52:00,
2013-07-20 23:57:00,58.5,39.4,29.85,North,0,0.0,0.0,49,0.00,,OVC036,0.00,VWS V12.08,2013-07-21 06:57:00,